{"data":{"norad_id":54836,"intl_designator":"2022-177S","name":"STARLINK-5384","alt_names":[],"object_type":"PAYLOAD","status":"ACTIVE","operator":null,"country":"US","launch_date":"2022-12-28","launch_site_code":"AFETR","launch_vehicle":null,"mission":null,"orbit_class":"UNKNOWN","rcs_meters":null,"size_class":null,"mass_kg":null,"dimensions":null,"purposes":["comms"],"wikipedia_slug":null,"has_3d_model":false,"image_url":null,"decayed_at":null,"tle_current":{"epoch":"2026-06-03T12:38:27.006144Z","epoch_age_seconds":9508635,"freshness":"OLD","line1":"1 54836U 22177S   26154.52670146  .08274357  93516-5  52509-3 0  9993","line2":"2 54836  42.9897 334.2056 0008135 282.2709  77.7273 16.40760283190489","mean_motion":16.40760283,"eccentricity":0.0008135,"inclination_deg":42.9897,"raan_deg":334.2056,"arg_perigee_deg":282.2709,"mean_anomaly_deg":77.7273,"bstar":0.00052509,"rev_number":19048,"period_min":87.764191693321,"perigee_km":158.45897936641,"apogee_km":169.10267967504,"semimajor_km":6541.9178295207,"source":"CELESTRAK","updated_at":"2026-06-04T09:01:46.905854Z"}}}